Location: M�nchen
(48.1404°N, 11.6043°E)
Time: 19:13:04
(UTC+01:00)

nSIGHT-1 - Visible Passes

Search period start: 20 November 2018 00:00
Search period end: 30 November 2018 00:00
Orbit: 370 x 378 km, 51.6° (Epoch: 20 November)

Date Brightness Start Highest point End Pass type
(mag) Time Alt. Az. Time Alt. Az. Time Alt. Az.
20 Nov ? 18:16:13 10° S 18:16:52 12° SSE 18:16:52 12° SSE visible
21 Nov ? 18:48:25 10° SW 18:49:36 20° SSW 18:49:36 20° SSW visible
22 Nov ? 17:47:06 10° S 17:49:25 20° SE 17:50:11 18° ESE visible
22 Nov ? 19:21:51 10° WSW 19:22:13 13° WSW 19:22:13 13° WSW visible
23 Nov ? 18:19:49 10° SW 18:22:41 54° SSE 18:22:41 54° SSE visible
24 Nov ? 17:18:07 10° SSW 17:20:48 28° SE 17:23:04 13° E visible
24 Nov ? 18:53:22 10° W 18:55:05 29° W 18:55:05 29° W visible
25 Nov ? 17:51:09 10° WSW 17:54:13 76° SSE 17:55:23 34° ENE visible
25 Nov ? 19:27:13 10° W 19:27:24 11° WNW 19:27:24 11° WNW visible
26 Nov ? 18:24:48 10° W 18:27:38 52° NNW 18:27:38 52° NNW visible
27 Nov ? 17:22:26 10° WSW 17:25:30 82° NNW 17:27:48 16° ENE visible
27 Nov ? 18:58:35 10° WNW 18:59:49 20° WNW 18:59:49 20° WNW visible
28 Nov ? 17:56:06 10° W 17:59:06 46° N 17:59:57 35° NE visible
29 Nov ? 16:53:37 10° WSW 16:56:40 65° NNW 16:59:44 10° ENE visible
29 Nov ? 18:29:48 10° WNW 18:32:03 34° NNW 18:32:03 34° NNW visible
